Regional Weather Roundup
Issued by NWS Kansas City/Pleasant Hill, MO

Home | Current Version | Previous Version | Text Only | Print | Product List | Glossary On
Versions: 1 2 3 4 5 6 7 8 9 10 11 12 13 14 15 16 17 18 19 20 21 22 23 24 25 26 27 28 29 30 31 32 33 34 35 36 37 38 39 40 41 42 43 44 45 46 47 48 49 50
000
ASUS43 KEAX 011211
RWREAX

WEATHER ROUNDUP FOR EASTERN KANSAS AND NORTHWEST MISSOURI
NATIONAL WEATHER SERVICE KANSAS CITY/PLEASANT HILL MO
700 AM CDT FRI AUG 01 2014

KSZ040-057-103>105-MOZ028-029-037-043-011300-
...KANSAS CITY METROPOLITAN AREA...

CITY           SKY/WX    TMP DP  RH WIND       PRES   REMARKS
K.C. INTL      LGT RAIN  67  62  84 N6        30.09R
6HR MIN TEMP:  65; 6HR MAX TEMP:  71; 6HR PCP: TRACE;

K.C. DOWNTOWN  CLOUDY    70  62  76 NW3       30.08R
6HR MIN TEMP:  69; 6HR MAX TEMP:  74; 6HR PCP: TRACE;

LEES SUMMIT    MOCLDY    67  61  81 CALM      30.09R
6HR MIN TEMP:  63; 6HR MAX TEMP:  70;

OLATHE - IXD   CLOUDY    66  61  84 S3        30.08S
6HR MIN TEMP:  62; 6HR MAX TEMP:  67;

OLATHE - OJC   CLOUDY    67  60  78 CALM      30.07S
6HR MIN TEMP:  64; 6HR MAX TEMP:  68;

LAWRENCE       MOCLDY    65  62  90 NE3       30.08R

$$

MOZ001>008-011>017-020>025-030>033-038>040-044>046-053-054-011300-
...NORTHERN AND CENTRAL MISSOURI...

CITY           SKY/WX    TMP DP  RH WIND       PRES   REMARKS
ST. JOSEPH     LGT RAIN  65  64  97 CALM      30.08F FOG
6HR MIN TEMP:  65; 6HR MAX TEMP:  69; 6HR PCP:  0.04;

MOSBY          CLOUDY    64  63  94 CALM      30.09R
WARRENSBURG    MOCLDY    61  59  94 CALM      30.08R
WHITEMAN AFB   MOCLDY    62  55  76 CALM      30.07R
6HR MIN TEMP:  60; 6HR MAX TEMP:  65;

CLINTON        FOG       59  59 100 CALM      30.08S VSB 1/4
SEDALIA        PTCLDY    62  58  86 CALM      30.08S FOG
6HR MIN TEMP:  60; 6HR MAX TEMP:  66;

WARSAW         NOT AVBL
MARSHALL       MOCLDY    66  64  94 CALM      30.09S
CHILLICOTHE      N/A     67  61  81 CALM      30.09S
6HR MIN TEMP:  63; 6HR MAX TEMP:  68;

MOBERLY        CLOUDY    64  59  82 CALM      30.09
KIRKSVILLE     PTCLDY    65  59  81 W3        30.09R
6HR MIN TEMP:  61; 6HR MAX TEMP:  67;


$$

MOZ041-047>049-056>058-063>065-088>090-097-011300-
...EASTERN AND SOUTHERN MISSOURI...

CITY           SKY/WX    TMP DP  RH WIND       PRES   REMARKS
ST. LOUIS INTL PTCLDY    68  63  84 CALM      30.09R
6HR MIN TEMP:  68; 6HR MAX TEMP:  74;

SPIRIT OF STL  PTCLDY    61  59  93 CALM      30.08R FOG
COLUMBIA       PTCLDY    61  60  97 S3        30.08R
JEFFERSON CITY PTCLDY    64  61  90 CALM      30.08R
MEXICO         MOCLDY   N/A N/A N/A CALM      30.08R
HANNIBAL       PTCLDY    68  63  83 CALM      30.08S
ROLLA          CLEAR     63  62  97 S5        30.08S
LEBANON        PTCLDY    61  59  94 CALM      30.11S
OSAGE BEACH    CLEAR     63  57  82 CALM      30.09R
SPRINGFIELD    FOG       62  61  96 CALM      30.10R VSB<1/4
BRANSON        FOG       64  63  94 CALM      30.11R VSB 1/4
NEVADA         CLEAR     63  63 100 CALM      30.10S
JOPLIN         CLOUDY    65  65 100 CALM      30.10R FOG
WEST PLAINS    CLOUDY    60  58  92 CALM      30.11S FOG

$$

IAZ060-094-KSZ022-034>040-054-083-096-NEZ052-066-093-011300-
...KANSAS...SOUTHEAST NEBRASKA AND IOWA...

CITY           SKY/WX    TMP DP  RH WIND       PRES   REMARKS
TOPEKA         LGT RAIN  67  63  87 NE5       30.07S
6HR MIN TEMP:  64; 6HR MAX TEMP:  70; 6HR PCP:  0.06;

MANHATTAN      MOCLDY    67  60  78 CALM      30.05R
EMPORIA        CLOUDY    64  63  96 CALM      30.08R
CHANUTE        FOG       62  61  96 SE5       30.08F VSB<1/4
WICHITA        PTCLDY    61  59  93 S5        30.07S
OMAHA          MOCLDY    66  60  81 SE3       30.06R
LINCOLN        CLEAR     64  58  80 E3        30.05R
FALLS CITY     MOCLDY    64  61  90 SE5       30.06R
LAMONI         CLOUDY    65  61  87 CALM      30.09S
DES MOINES     PTCLDY    65  60  84 CALM      30.08R

$$




USA.gov is the U.S. government's official web portal to all federal, state and local government web resources and services.